Wellsville, NY

7:27 AM EDT on May 27, 2017 (GMT -0400)
Wellsville Municipal-Tarantine

Weather History for KELZ - April, 2013

Change the Weather History Date:

Thursday, April 4, 2013

  Actual Average (KDSV) Record (KDSV)
Temperature  
Mean Temperature 34 °F -  
Max Temperature 51 °F 53 °F 82 °F (1981)
Min Temperature 18 °F 31 °F 15 °F (1954)
Degree Days  
Heating Degree Days 30    
Moisture  
Dew Point 10 °F    
Average Humidity 44    
Maximum Humidity 78    
Minimum Humidity 13    
Precipitation  
Precipitation 0.00 in - - ()
Sea Level Pressure  
Sea Level Pressure 30.21 in    
Wind  
Wind Speed 6 mph (SW)    
Max Wind Speed 13 mph    
Max Gust Speed 21 mph    
Visibility 10 miles    
Events      
Averages and records for this station are not official NWS values.
T = Trace of Precipitation, MM = Missing Value Source: NWS Daily Summary

Daily Weather History Graph

Daily Weather History Graph

Search for Another Location

Airport or City:

Trip Planner

Search our weather history database for the weather conditions in past years. The results will help you decide how hot, cold, wet, or windy it might be!

Date:

Astronomy

Apr. 04, 2013 Rise Set
Actual Time 6:49 AM EDT 7:41 PM EDT
Civil Twilight 6:20 AM EDT 8:09 PM EDT
Nautical Twilight 5:47 AM EDT 8:43 PM EDT
Astronomical Twilight 5:12 AM EDT 9:18 PM EDT
Moon 3:20 AM EDT (4/4) 1:51 PM EDT (4/4)
Length of Visible Light 13h 48m
Length of Day
12h 52m
Waning Crescent, 34% of the Moon is Illuminated
Apr 4
Waning Crescent
Apr 10
New
Apr 18
First Quarter
Apr 25
Full
May 2
Last Quarter

Hourly Weather History & Observations

Time (EDT) Temp. Windchill Dew Point Humidity Pressure Visibility Wind Dir Wind Speed Gust Speed Precip Events Conditions
12:56 AM 19.0 °F 11.1 °F 12.0 °F 74% 30.35 in 10.0 mi WNW 5.8 mph - N/A   Clear
1:56 AM 18.0 °F 8.7 °F 12.0 °F 78% 30.35 in 10.0 mi West 6.9 mph - N/A   Clear
2:56 AM 19.0 °F 13.9 °F 12.9 °F 77% 30.36 in 10.0 mi West 3.5 mph - N/A   Clear
3:56 AM 19.9 °F 10.1 °F 12.9 °F 74% 30.37 in 10.0 mi West 8.1 mph - N/A   Clear
4:56 AM 19.0 °F 12.3 °F 12.9 °F 77% 30.38 in 10.0 mi WSW 4.6 mph - N/A   Clear
5:56 AM 18.0 °F 12.7 °F 12.0 °F 78% 30.37 in 10.0 mi WSW 3.5 mph - N/A   Clear
6:56 AM 18.0 °F 12.7 °F 12.0 °F 78% 30.37 in 10.0 mi WSW 3.5 mph - N/A   Clear
7:56 AM 21.9 °F 15.7 °F 14.0 °F 72% 30.36 in 10.0 mi WSW 4.6 mph - N/A   Clear
8:56 AM 25.0 °F 20.7 °F 15.1 °F 66% 30.35 in 10.0 mi Variable 3.5 mph - N/A   Clear
9:56 AM 30.9 °F 25.2 °F 14.0 °F 50% 30.32 in 10.0 mi SW 5.8 mph - N/A   Clear
10:56 AM 35.1 °F 29.3 °F 12.9 °F 40% 30.29 in 10.0 mi SSW 6.9 mph - N/A   Clear
11:56 AM 39.0 °F 34.0 °F 12.0 °F 33% 30.26 in 10.0 mi WSW 6.9 mph - N/A   Clear
12:56 PM 44.1 °F 40.1 °F 12.0 °F 27% 30.22 in 10.0 mi SW 6.9 mph - N/A   Clear
1:56 PM 46.0 °F 41.9 °F 10.9 °F 24% 30.17 in 10.0 mi South 8.1 mph 18.4 mph N/A   Clear
2:56 PM 46.9 °F - 10.0 °F 22% 30.13 in 10.0 mi SSW 10.4 mph 18.4 mph N/A   Clear
3:56 PM 48.0 °F - 10.9 °F 22% 30.12 in 10.0 mi South 12.7 mph 20.7 mph N/A   Clear
4:56 PM 51.1 °F - 8.1 °F 18% 30.07 in 10.0 mi SW 10.4 mph - N/A   Clear
5:56 PM 48.9 °F - 5.0 °F 17% 30.06 in 10.0 mi SSW 10.4 mph 18.4 mph N/A   Clear
6:56 PM 48.0 °F - -0.9 °F 13% 30.04 in 10.0 mi SSW 9.2 mph 18.4 mph N/A   Clear
7:56 PM 44.1 °F 40.1 °F 1.9 °F 17% 30.04 in 10.0 mi South 6.9 mph - N/A   Clear
8:56 PM 42.1 °F 36.6 °F 3.9 °F 21% 30.03 in 10.0 mi South 9.2 mph - N/A   Clear
9:56 PM 41.0 °F 35.2 °F 3.0 °F 21% 30.01 in 10.0 mi South 9.2 mph 17.3 mph N/A   Clear
10:56 PM 39.0 °F 34.8 °F 3.9 °F 23% 29.99 in 10.0 mi SSW 5.8 mph - N/A   Clear
11:56 PM 37.0 °F 31.6 °F 6.1 °F 28% 29.97 in 10.0 mi SW 6.9 mph - N/A   Clear